NOZ326 EKYT-EHAM

Flight info

Callsign NOZ326
Flight time 1h 7m
Altitude 36000
Route DCT GELBA DCT LUTIR DCT MOXCI P174 KUBAT T200 BLUFA BLUFA1A
Aircraft B738/M-SDE2E3FGHIRWXY/LB1

Departure

Time 2026-04-30 18:38
Airport Aalborg Airport (EKYT)

Arrival

Time 2026-04-30 19:45
Airport Amsterdam Airport Schiphol (EHAM)
Time Latitude Longitude Altitude Speed Heading
2026-04-30 18:11 57.08708 9.86971 18 ft 0 kts 57°
2026-04-30 18:31 57.08704 9.86961 18 ft 6 kts 57°
2026-04-30 18:32 57.08663 9.86891 17 ft 0 kts 17°
2026-04-30 18:32 57.08665 9.86890 17 ft 1 kts 354°
2026-04-30 18:33 57.08673 9.86868 19 ft 6 kts 308°
2026-04-30 18:33 57.08829 9.86623 17 ft 17 kts 322°
2026-04-30 18:33 57.08925 9.86480 17 ft 19 kts 320°
2026-04-30 18:34 57.09029 9.86336 17 ft 18 kts 320°
2026-04-30 18:34 57.09230 9.86052 17 ft 19 kts 323°
2026-04-30 18:34 57.09338 9.85961 17 ft 16 kts 31°
2026-04-30 18:35 57.09358 9.86153 19 ft 17 kts 83°
2026-04-30 18:35 57.09375 9.86416 18 ft 25 kts 83°
2026-04-30 18:35 57.09396 9.86748 18 ft 26 kts 83°
2026-04-30 18:36 57.09435 9.87360 17 ft 23 kts 84°
2026-04-30 18:36 57.09455 9.87640 16 ft 20 kts 77°
2026-04-30 18:36 57.09618 9.87684 17 ft 14 kts 306°
2026-04-30 18:37 57.09641 9.87559 16 ft 1 kts 264°
2026-04-30 18:37 57.09633 9.87437 16 ft 35 kts 263°
2026-04-30 18:37 57.09577 9.86559 20 ft 101 kts 263°
2026-04-30 18:37 57.09472 9.84931 22 ft 153 kts 263°
2026-04-30 18:38 57.09328 9.82835 376 ft 172 kts 263°
2026-04-30 18:38 57.09219 9.81359 779 ft 178 kts 262°
2026-04-30 18:38 57.08982 9.78369 1769 ft 178 kts 264°
2026-04-30 18:38 57.08878 9.76841 2226 ft 179 kts 265°
2026-04-30 18:39 57.08196 9.73911 2573 ft 210 kts 224°
2026-04-30 18:39 57.07370 9.72803 2697 ft 225 kts 213°
2026-04-30 18:39 57.05962 9.71431 2947 ft 242 kts 209°
2026-04-30 18:39 57.04388 9.70025 3335 ft 256 kts 208°
2026-04-30 18:40 57.02771 9.68606 4000 ft 261 kts 206°
2026-04-30 18:40 57.01114 9.67153 4656 ft 264 kts 206°
2026-04-30 18:40 56.99445 9.65686 5347 ft 268 kts 205°
2026-04-30 18:40 56.97749 9.64189 5999 ft 272 kts 205°
2026-04-30 18:41 56.96041 9.62677 6718 ft 274 kts 205°
2026-04-30 18:41 56.94309 9.61141 7376 ft 278 kts 205°
2026-04-30 18:41 56.92564 9.59591 8066 ft 280 kts 205°
2026-04-30 18:41 56.90797 9.58020 8785 ft 283 kts 205°
2026-04-30 18:42 56.89010 9.56431 9502 ft 287 kts 205°
2026-04-30 18:42 56.85399 9.53220 10803 ft 299 kts 205°
2026-04-30 18:42 56.83452 9.51493 10962 ft 323 kts 205°
2026-04-30 18:45 56.60733 9.31452 16972 ft 385 kts 206°
2026-04-30 18:45 56.58321 9.29335 17770 ft 385 kts 206°
2026-04-30 18:45 56.55904 9.27219 18467 ft 388 kts 206°
2026-04-30 18:46 56.53449 9.25074 18987 ft 394 kts 206°
2026-04-30 18:46 56.50963 9.22905 19526 ft 398 kts 206°
2026-04-30 18:46 56.48463 9.20727 20160 ft 399 kts 206°
2026-04-30 18:46 56.45957 9.18547 20742 ft 402 kts 206°
2026-04-30 18:47 56.43453 9.16371 21251 ft 407 kts 206°
2026-04-30 18:47 56.40884 9.14143 21773 ft 411 kts 206°
2026-04-30 18:47 56.38299 9.11904 22289 ft 414 kts 206°
2026-04-30 18:47 56.35690 9.09647 22824 ft 418 kts 206°
2026-04-30 18:48 56.33056 9.07372 23331 ft 421 kts 206°
2026-04-30 18:48 56.30401 9.05083 23831 ft 425 kts 206°
2026-04-30 18:48 56.27718 9.02773 24276 ft 428 kts 206°
2026-04-30 18:48 56.25025 9.00458 24708 ft 431 kts 206°
2026-04-30 18:49 56.22309 8.98127 25148 ft 433 kts 206°
2026-04-30 18:49 56.19582 8.95791 25573 ft 435 kts 206°
2026-04-30 18:49 56.16843 8.93447 25983 ft 438 kts 206°
2026-04-30 18:49 56.14083 8.91090 26393 ft 440 kts 206°
2026-04-30 18:50 56.11307 8.88723 26775 ft 443 kts 206°
2026-04-30 18:50 56.08544 8.86370 27173 ft 445 kts 206°
2026-04-30 18:50 56.05739 8.83986 27562 ft 447 kts 206°
2026-04-30 18:50 56.02919 8.81592 27938 ft 450 kts 206°
2026-04-30 18:51 56.00082 8.79188 28307 ft 452 kts 206°
2026-04-30 18:51 55.97233 8.76779 28664 ft 454 kts 206°
2026-04-30 18:51 55.94365 8.74357 29023 ft 456 kts 206°
2026-04-30 18:51 55.91491 8.71933 29368 ft 458 kts 206°
2026-04-30 18:52 55.88598 8.69498 29705 ft 461 kts 206°
2026-04-30 18:52 55.85687 8.67052 30034 ft 463 kts 206°
2026-04-30 18:52 55.82756 8.64593 30352 ft 465 kts 206°
2026-04-30 18:52 55.79838 8.62150 30638 ft 467 kts 206°
2026-04-30 18:53 55.76900 8.59694 30978 ft 466 kts 206°
2026-04-30 18:53 55.73960 8.57240 31386 ft 464 kts 206°
2026-04-30 18:53 55.71030 8.54799 31787 ft 463 kts 206°
2026-04-30 18:53 55.68161 8.52413 32126 ft 462 kts 206°
2026-04-30 18:54 55.65241 8.49989 32446 ft 462 kts 206°
2026-04-30 18:54 55.62329 8.47574 32796 ft 462 kts 206°
2026-04-30 18:54 55.59424 8.45169 33153 ft 460 kts 206°
2026-04-30 18:54 55.56526 8.42774 33506 ft 460 kts 206°
2026-04-30 18:55 55.53626 8.40381 33830 ft 459 kts 206°
2026-04-30 18:55 55.47839 8.35617 34514 ft 457 kts 206°
2026-04-30 18:55 55.45010 8.33294 34934 ft 452 kts 206°
2026-04-30 18:56 55.39313 8.28628 35427 ft 453 kts 206°
2026-04-30 18:56 55.36454 8.26291 35636 ft 453 kts 206°
2026-04-30 18:56 55.33597 8.23960 35921 ft 452 kts 206°
2026-04-30 18:57 55.27892 8.19317 36457 ft 450 kts 206°
2026-04-30 18:57 55.22173 8.14675 36461 ft 455 kts 206°
2026-04-30 18:58 55.13593 8.07742 36451 ft 448 kts 206°
2026-04-30 18:59 55.05148 8.00950 36459 ft 446 kts 206°
2026-04-30 19:00 54.93868 7.91926 36462 ft 446 kts 206°
2026-04-30 19:01 54.82560 7.82935 36459 ft 448 kts 206°
2026-04-30 19:02 54.74077 7.76227 36453 ft 449 kts 205°
2026-04-30 19:03 54.62670 7.67257 36456 ft 451 kts 205°
2026-04-30 19:04 54.51225 7.58312 36448 ft 452 kts 205°
2026-04-30 19:05 54.39795 7.49434 36444 ft 451 kts 205°
2026-04-30 19:06 54.28357 7.40603 36439 ft 450 kts 205°
2026-04-30 19:06 54.19791 7.34026 36437 ft 449 kts 205°
2026-04-30 19:07 54.11227 7.27480 36436 ft 449 kts 205°
2026-04-30 19:08 53.99807 7.18792 35841 ft 450 kts 204°
2026-04-30 19:08 53.96963 7.16639 35582 ft 445 kts 204°
2026-04-30 19:09 53.91384 7.12425 35009 ft 433 kts 204°
2026-04-30 19:09 53.88643 7.10357 34647 ft 429 kts 204°
2026-04-30 19:09 53.85930 7.08314 34259 ft 424 kts 204°
2026-04-30 19:10 53.80551 7.04271 33397 ft 423 kts 204°
2026-04-30 19:10 53.75159 7.00230 32568 ft 425 kts 204°
2026-04-30 19:11 53.72446 6.98202 31922 ft 428 kts 204°
2026-04-30 19:11 53.66988 6.94129 30624 ft 429 kts 203°
2026-04-30 19:11 53.64276 6.92109 29867 ft 423 kts 203°
2026-04-30 19:12 53.61604 6.90122 29114 ft 418 kts 202°
2026-04-30 19:12 53.58962 6.88160 28381 ft 412 kts 203°
2026-04-30 19:12 53.56352 6.86223 27667 ft 407 kts 202°
2026-04-30 19:13 53.51256 6.82449 26598 ft 389 kts 202°
2026-04-30 19:13 53.46361 6.78835 26415 ft 384 kts 202°
2026-04-30 19:13 53.43924 6.77041 26394 ft 380 kts 202°
2026-04-30 19:14 53.41539 6.75287 26396 ft 379 kts 202°
2026-04-30 19:14 53.39081 6.73482 26396 ft 381 kts 202°
2026-04-30 19:14 53.36682 6.71722 26392 ft 381 kts 202°
2026-04-30 19:14 53.34252 6.69941 26378 ft 381 kts 202°
2026-04-30 19:15 53.31824 6.68164 26377 ft 381 kts 202°
2026-04-30 19:15 53.27007 6.64642 26372 ft 376 kts 202°
2026-04-30 19:15 53.24609 6.62893 26379 ft 376 kts 202°
2026-04-30 19:16 53.22211 6.61123 26376 ft 378 kts 204°
2026-04-30 19:16 53.19991 6.58749 26379 ft 379 kts 218°
2026-04-30 19:16 53.16144 6.52975 25700 ft 368 kts 220°
2026-04-30 19:17 53.14257 6.50090 25015 ft 369 kts 220°
2026-04-30 19:17 53.10462 6.44325 23772 ft 369 kts 220°
2026-04-30 19:17 53.08572 6.41473 23296 ft 363 kts 220°
2026-04-30 19:18 53.06103 6.37761 22573 ft 360 kts 219°
2026-04-30 19:18 53.03022 6.33150 21597 ft 357 kts 219°
2026-04-30 19:18 53.01177 6.30395 21027 ft 355 kts 219°
2026-04-30 19:19 52.99348 6.27668 20481 ft 353 kts 219°
2026-04-30 19:19 52.97522 6.24948 19946 ft 351 kts 219°
2026-04-30 19:19 52.93908 6.19577 18916 ft 347 kts 218°
2026-04-30 19:20 52.92113 6.16913 18376 ft 345 kts 218°
2026-04-30 19:20 52.90327 6.14266 17897 ft 341 kts 218°
2026-04-30 19:20 52.86900 6.09190 17077 ft 327 kts 218°
2026-04-30 19:21 52.85211 6.06695 16727 ft 324 kts 217°
2026-04-30 19:21 52.81810 6.01686 15849 ft 330 kts 217°
2026-04-30 19:22 52.78337 5.96582 14842 ft 337 kts 217°
2026-04-30 19:22 52.72370 5.91640 13406 ft 310 kts 175°
2026-04-30 19:23 52.66254 5.91790 12278 ft 291 kts 192°
2026-04-30 19:24 52.63023 5.87689 11833 ft 312 kts 231°
2026-04-30 19:24 52.61827 5.84665 11613 ft 317 kts 233°
2026-04-30 19:24 52.59514 5.78557 11107 ft 312 kts 234°
2026-04-30 19:25 52.56456 5.70593 10461 ft 307 kts 233°
2026-04-30 19:26 52.54160 5.64686 9960 ft 302 kts 233°
2026-04-30 19:26 52.51970 5.59069 9717 ft 279 kts 232°
2026-04-30 19:26 52.50954 5.56367 9708 ft 280 kts 239°
2026-04-30 19:27 52.49526 5.50208 9744 ft 294 kts 248°
2026-04-30 19:27 52.48243 5.43890 9742 ft 289 kts 247°
2026-04-30 19:28 52.47598 5.40776 9733 ft 288 kts 247°
2026-04-30 19:28 52.46275 5.34528 9518 ft 292 kts 246°
2026-04-30 19:29 52.44921 5.28235 9278 ft 293 kts 246°
2026-04-30 19:29 52.44247 5.25118 9165 ft 292 kts 246°
2026-04-30 19:30 52.42209 5.15756 8833 ft 292 kts 246°
2026-04-30 19:30 52.40845 5.09521 8570 ft 286 kts 246°
2026-04-30 19:31 52.39567 5.03674 8333 ft 262 kts 245°
2026-04-30 19:31 52.38950 5.00873 8251 ft 261 kts 245°
2026-04-30 19:31 52.37712 4.95272 8074 ft 262 kts 245°
2026-04-30 19:32 52.37090 4.92460 7967 ft 263 kts 245°
2026-04-30 19:32 52.36466 4.89641 7857 ft 264 kts 245°
2026-04-30 19:32 52.35840 4.86808 7761 ft 264 kts 245°
2026-04-30 19:32 52.35225 4.84033 7647 ft 261 kts 245°
2026-04-30 19:33 52.34603 4.81230 7540 ft 257 kts 245°
2026-04-30 19:33 52.34000 4.78521 7437 ft 257 kts 245°
2026-04-30 19:33 52.33418 4.75744 7348 ft 260 kts 253°
2026-04-30 19:33 52.33391 4.72742 7186 ft 268 kts 265°
2026-04-30 19:34 52.33195 4.69707 6898 ft 270 kts 257°
2026-04-30 19:34 52.32935 4.66691 6629 ft 265 kts 257°
2026-04-30 19:34 52.32418 4.60762 6013 ft 267 kts 257°
2026-04-30 19:35 52.32148 4.57775 5711 ft 266 kts 257°
2026-04-30 19:35 52.31877 4.54778 5441 ft 266 kts 257°
2026-04-30 19:35 52.31608 4.51798 5191 ft 263 kts 257°
2026-04-30 19:35 52.31344 4.48868 4979 ft 257 kts 257°
2026-04-30 19:36 52.31089 4.45998 4786 ft 254 kts 257°
2026-04-30 19:36 52.30847 4.43217 4731 ft 246 kts 257°
2026-04-30 19:36 52.30376 4.37708 4654 ft 243 kts 257°
2026-04-30 19:37 52.30144 4.34994 4631 ft 235 kts 257°
2026-04-30 19:37 52.29934 4.32432 4589 ft 220 kts 257°
2026-04-30 19:37 52.29727 4.30031 4573 ft 207 kts 249°
2026-04-30 19:37 52.29042 4.28112 4603 ft 190 kts 210°
2026-04-30 19:38 52.27881 4.27407 4616 ft 174 kts 173°
2026-04-30 19:38 52.26813 4.28126 4619 ft 168 kts 134°
2026-04-30 19:38 52.26270 4.29784 4630 ft 165 kts 113°
2026-04-30 19:38 52.25867 4.31516 4617 ft 161 kts 115°
2026-04-30 19:39 52.25444 4.33203 4623 ft 160 kts 116°
2026-04-30 19:39 52.25017 4.34885 4628 ft 160 kts 116°
2026-04-30 19:39 52.24590 4.36564 4626 ft 160 kts 116°
2026-04-30 19:39 52.24162 4.38243 4625 ft 160 kts 116°
2026-04-30 19:40 52.23731 4.39933 4553 ft 160 kts 116°
2026-04-30 19:40 52.23310 4.41591 4293 ft 157 kts 116°
2026-04-30 19:40 52.22983 4.43305 3977 ft 162 kts 99°
2026-04-30 19:40 52.23041 4.45144 3659 ft 165 kts 92°
2026-04-30 19:41 52.23132 4.46995 3380 ft 163 kts 92°
2026-04-30 19:41 52.23221 4.48817 3125 ft 160 kts 92°
2026-04-30 19:41 52.23315 4.50620 2861 ft 159 kts 92°
2026-04-30 19:41 52.23409 4.52409 2610 ft 156 kts 91°
2026-04-30 19:42 52.23491 4.54162 2432 ft 156 kts 94°
2026-04-30 19:42 52.23496 4.55954 2335 ft 158 kts 95°
2026-04-30 19:42 52.23493 4.57718 2212 ft 152 kts 96°
2026-04-30 19:42 52.23494 4.59429 2069 ft 154 kts 86°
2026-04-30 19:43 52.24015 4.61014 2033 ft 161 kts 66°
2026-04-30 19:43 52.24616 4.62548 2008 ft 160 kts 67°
2026-04-30 19:43 52.25216 4.64071 1903 ft 163 kts 66°
2026-04-30 19:44 52.26410 4.67164 1130 ft 152 kts 66°
2026-04-30 19:44 52.26947 4.68569 829 ft 140 kts 66°
2026-04-30 19:44 52.27436 4.69891 624 ft 137 kts 64°
2026-04-30 19:44 52.27953 4.71203 402 ft 137 kts 61°
2026-04-30 19:45 52.28452 4.72520 198 ft 136 kts 63°
2026-04-30 19:45 52.28958 4.73834 42 ft 139 kts 60°
2026-04-30 19:45 52.29439 4.75096 -6 ft 111 kts 58°
2026-04-30 19:45 52.29732 4.75855 -5 ft 47 kts 59°
2026-04-30 19:46 52.29864 4.76202 -7 ft 34 kts 58°
2026-04-30 19:46 52.30007 4.76508 -4 ft 33 kts 37°
2026-04-30 19:46 52.30165 4.76655 -3 ft 21 kts 27°
2026-04-30 19:46 52.30235 4.76716 -4 ft 0 kts 29°
2026-04-30 19:47 52.30257 4.76736 -4 ft 12 kts 30°
2026-04-30 19:47 52.30313 4.76826 -4 ft 22 kts 57°
2026-04-30 19:47 52.30424 4.77117 -4 ft 22 kts 58°
2026-04-30 19:47 52.30505 4.77326 -4 ft 22 kts 58°
2026-04-30 19:48 52.30586 4.77524 -3 ft 21 kts 47°
2026-04-30 19:48 52.30719 4.77594 -3 ft 20 kts
2026-04-30 19:48 52.30820 4.77573 -3 ft 7 kts 325°
2026-04-30 19:48 52.30823 4.77569 -3 ft 0 kts 320°
2026-04-30 19:50 52.30836 4.77466 -3 ft 13 kts 271°
2026-04-30 19:50 52.30842 4.77372 -3 ft 6 kts 301°
2026-04-30 19:50 52.30862 4.77363 -3 ft 3 kts
2026-04-30 19:50 52.30882 4.77365 -3 ft 0 kts